Current weather by "City, St" or "zip code"  
 

Current Conditions: Beckley, Raleigh County Memorial Airport, WV

Fog/Mist


59.0 F

Last Updated on Sep 18 2020, 11:51 am EDT
Humidity: 100%
Wind Speed: N 8.1 mph
Barometer 30.11 in
Dewpoint: 59.0 F
Visibility: 5.00 mi
Precip: --
Heat Index: NA
Wind Chill: 58 F
Current conditions at:

Beckley, Raleigh County Memorial Airport, WV (KBKW)

Lat: 37.795 Lon: 81.12472

Local Radar Image active severe weather and emergency alerts image image weather storm and storm spotter reports image weather observation monitoring service image
Local
Radar
Active
Alerts
Storm Reports Obs
Monitoring

Sign-up For Email & Text Message Weather Alert Notification Services



Advertise Here

Observation History for Beckley, Raleigh County Memorial Airport, WV


Time Wind
(mph)
Vis
(mi)
Weather Precip (in) Temperature (F) Relative
Humidity
Wind
Chill
(F)
Heat
Index
(F)
Pressure
Air Dwpt altimeter
(in)
sea level
(mb)
Rmks
11:51 am EDT N 8.1 5.00 Fog/Mist -- 59.0 59.0 100% 58 NA 30.11 1017.8
10:51 am EDT N 6.9 5.00 Fog/Mist 00.01 59.0 59.0 100% 58 NA 30.10 1017.5
9:51 am EDT N 9.2 3.00 Light Rain Fog/Mist Trace 59.0 59.0 100% 57 NA 30.08 1016.9
8:51 am EDT N 8.1 4.00 Light Rain Fog/Mist Trace 59.0 59.0 100% 58 NA 30.06 1015.9
7:51 am EDT N 6.9 5.00 Fog/Mist -- 59.0 59.0 100% 58 NA 30.04 1015.3
6:51 am EDT N 6.9 6.00 Fog/Mist Trace 59.0 59.0 100% 58 NA 30.03 1015.0
5:51 am EDT N 9.2 3.00 Fog/Mist Trace 60.0 60.1 100% 59 NA 30.00 1013.9
4:51 am EDT N 11.5 1.75 Fog/Mist -- 61.0 61.0 100% 59 NA 29.98 1013.4
3:51 am EDT N 8.1 6.00 Fog/Mist -- 61.0 61.0 100% 60 NA 29.99 1013.5
2:51 am EDT N 8.1 0.50 Fog -- 61.0 61.0 100% 60 NA 29.98 1013.2
1:51 am EDT 3.5 10.00 Overcast -- 61.0 61.0 100% NA NA 29.99 1013.4
12:51 am EDT N 3.5 10.00 Overcast -- 62.0 62.1 100% NA NA 29.99 1013.4
11:51 pm EDT NE 5.8 10.00 Overcast -- 62.0 62.1 100% 62 NA 30.00 1013.9
10:51 pm EDT N 3.5 10.00 Overcast -- 63.0 63.0 100% NA NA 30.00 1014.0
9:51 pm EDT NE 3.5 10.00 Overcast -- 63.0 63.0 100% NA NA 30.00 1014.0
8:51 pm EDT N 3.5 3.00 Light Rain Fog/Mist 00.01 63.0 63.0 100% NA NA 29.99 1013.9
7:51 pm EDT N 3.5 10.00 Overcast 00.01 63.0 63.0 100% NA NA 29.98 1013.5
6:51 pm EDT E 3.5 10.00 Light Rain 00.02 63.0 63.0 100% NA NA 29.98 1013.4
5:51 pm EDT N 4.6 10.00 Overcast 00.01 63.0 63.0 100% 64 NA 29.97 1013.3
4:51 pm EDT N 8.1 10.00 Light Rain 00.04 62.0 62.1 100% 61 NA 29.97 1013.2
3:51 pm EDT E 6.9 6.00 Light Rain Fog/Mist 00.07 62.0 61.0 96% 62 NA 29.99 1013.9
2:51 pm EDT E 4.6 6.00 Light Rain Fog/Mist 00.06 62.0 61.0 96% 62 NA 30.01 1014.6
1:51 pm EDT E 8.1 8.00 Light Rain 00.04 62.0 62.1 100% 61 NA 30.04 1015.5
12:51 pm EDT NE 3.5 7.00 Light Rain 00.03 63.0 62.1 97% NA NA 30.06 1016.0

Regional Weather Observation


Pineville, Kee Field Airport, WV (KI16)

Overcast
66.0 F

Charleston, Yeager Airport, WV (KCRW)

Overcast
62.0 F

Bluefield, Mercer County Airport, WV (KBLF)

Overcast
61.0 F

Lewisburg / Greenbrier, WV (KLWB)

Mostly Cloudy
66.0 F

Tazewell County Airport, VA (KJFZ)

Overcast
60.0 F

Dublin / New River Valley, VA (KPSK)

Mostly Cloudy
70.0 F